Location: Buckeye Ditch
(40.9104°N, 122.9517°W)
Time: 11:58:55
(UTC+00:00)

Tiros 1 despin weight - Pass Details

Date: 26 May 2025
Orbit: 563 x 601 km, 48.2° (Epoch: 22 June)

Event Time Altitude Azimuth Distance (km) Brightness Sun altitude
Rises 13:38:53 0° 299° (WNW) 2,834 ? 8.3°
Reaches altitude 10° 13:41:10 10° 299° (WNW) 1,934 ? 8.7°
Maximum altitude 13:45:37 90° 201° (SSW) 604 ? 9.5°
Drops below altitude 10° 13:50:05 10° 120° (ESE) 1,936 ? 10.3°
Sets 13:52:22 0° 121° (ESE) 2,836 ? 10.7°
